Forest City, IA

5:42 AM CST on December 13, 2017 (GMT -0600)
Forest City Municipal

Weather History for KFXY - March, 2014

Change the Weather History Date:

Sunday, March 9, 2014

  Actual Average Record
Temperature  
Mean Temperature 23 °F -  
Max Temperature 41 °F 40 °F 53 °F (2015)
Min Temperature 5 °F 22 °F 5 °F (2014)
Degree Days  
Heating Degree Days 42    
Moisture  
Dew Point 24 °F    
Average Humidity 80    
Maximum Humidity 93    
Minimum Humidity 69    
Precipitation  
Precipitation 0.01 in - - ()
Sea Level Pressure  
Sea Level Pressure 29.89 in    
Wind  
Wind Speed 8 mph (SSW)    
Max Wind Speed 20 mph    
Max Gust Speed 26 mph    
Visibility 10 miles    
Events      
Averages and records for this station are not official NWS values.
T = Trace of Precipitation, MM = Missing Value Source: NWS Daily Summary

Daily Weather History Graph

Daily Weather History Graph

Search for Another Location

Airport or City:

Trip Planner

Search our weather history database for the weather conditions in past years. The results will help you decide how hot, cold, wet, or windy it might be!

Date:

Astronomy

Mar. 09, 2014 Rise Set
Actual Time 7:37 AM CDT 7:13 PM CDT
Civil Twilight 7:08 AM CDT 7:42 PM CDT
Nautical Twilight 6:35 AM CDT 8:15 PM CDT
Astronomical Twilight 6:02 AM CDT 8:48 PM CDT
Moon 12:59 PM CDT (3/9) 3:10 AM CDT (3/9)
Length of Visible Light 12h 33m
Length of Day
11h 36m
First Quarter, 61% of the Moon is Illuminated
Mar 9
First Quarter
Mar 16
Full
Mar 23
Last Quarter
Mar 30
New
Apr 7
First Quarter

Hourly Weather History & Observations

Time (CDT) Temp. Windchill Dew Point Humidity Pressure Visibility Wind Dir Wind Speed Gust Speed Precip Events Conditions
12:15 AM 8.6 °F - 5.0 °F 85% 30.21 in 10.0 mi Calm Calm - N/A   Clear
12:35 AM 6.8 °F - 3.2 °F 85% 30.19 in 10.0 mi Calm Calm - N/A   Clear
12:55 AM 8.6 °F - 3.2 °F 79% 30.19 in 10.0 mi Calm Calm - N/A   Clear
1:15 AM 5.0 °F - 1.4 °F 85% 30.18 in 10.0 mi Calm Calm - N/A   Clear
1:35 AM 8.6 °F 0.1 °F 5.0 °F 85% 30.17 in 10.0 mi South 4.6 mph - N/A   Clear
1:55 AM 12.2 °F 6.1 °F 8.6 °F 85% 30.16 in 10.0 mi South 3.5 mph - N/A   Clear
3:15 AM 14.0 °F 8.2 °F 10.4 °F 86% 30.15 in 10.0 mi SSW 3.5 mph - N/A   Clear
3:35 AM 14.0 °F - 10.4 °F 86% 30.15 in 10.0 mi Calm Calm - N/A   Clear
3:55 AM 14.0 °F 6.5 °F 12.2 °F 93% 30.13 in 10.0 mi SSW 4.6 mph - N/A   Clear
4:15 AM 15.8 °F 4.2 °F 14.0 °F 93% 30.12 in 10.0 mi SSW 9.2 mph - N/A   Clear
4:35 AM 17.6 °F 5.7 °F 14.0 °F 86% 30.11 in 10.0 mi SSW 10.4 mph - N/A   Clear
4:55 AM 17.6 °F 5.7 °F 15.8 °F 93% 30.11 in 10.0 mi SSW 10.4 mph - N/A   Clear
5:15 AM 17.6 °F 6.4 °F 15.8 °F 93% 30.11 in 10.0 mi SSW 9.2 mph - N/A   Clear
5:35 AM 19.4 °F 7.2 °F 17.6 °F 93% 30.09 in 10.0 mi South 11.5 mph - N/A   Clear
5:55 AM 19.4 °F 8.6 °F 15.8 °F 86% 30.07 in 10.0 mi South 9.2 mph - N/A   Clear
6:15 AM 19.4 °F 6.6 °F 17.6 °F 93% 30.06 in 10.0 mi South 12.7 mph - N/A   Clear
6:35 AM 21.2 °F 8.9 °F 17.6 °F 86% 30.06 in 10.0 mi South 12.7 mph - N/A   Clear
6:55 AM 21.2 °F 8.9 °F 17.6 °F 86% 30.06 in 10.0 mi SSW 12.7 mph - N/A   Clear
7:15 AM 21.2 °F 8.9 °F 17.6 °F 86% 30.04 in 10.0 mi South 12.7 mph - N/A   Clear
7:35 AM 23.0 °F 11.1 °F 17.6 °F 80% 30.04 in 10.0 mi South 12.7 mph - N/A   Clear
7:55 AM 23.0 °F 10.1 °F 17.6 °F 80% 30.01 in 10.0 mi South 15.0 mph - N/A   Clear
8:15 AM 23.0 °F 10.1 °F 17.6 °F 80% 30.01 in 10.0 mi SSW 15.0 mph - N/A   Clear
8:35 AM 24.8 °F 12.4 °F 17.6 °F 74% 30.01 in 10.0 mi South 15.0 mph 19.6 mph N/A   Clear
8:55 AM 26.6 °F 14.7 °F 19.4 °F 74% 29.99 in 10.0 mi South 15.0 mph 20.7 mph N/A   Clear
9:15 AM 26.6 °F 13.4 °F 19.4 °F 74% 29.97 in 10.0 mi South 18.4 mph - N/A   Clear
9:35 AM 28.4 °F 16.6 °F 19.4 °F 69% 29.96 in 10.0 mi SSW 16.1 mph 21.9 mph N/A   Clear
9:55 AM 28.4 °F 16.6 °F 21.2 °F 74% 29.96 in 10.0 mi SSW 16.1 mph 21.9 mph N/A   Clear
10:15 AM 30.2 °F 18.9 °F 21.2 °F 69% 29.94 in 10.0 mi SSW 16.1 mph 23.0 mph N/A   Clear
10:35 AM 32.0 °F 21.2 °F 23.0 °F 69% 29.93 in 10.0 mi SSW 16.1 mph - N/A   Clear
10:55 AM 32.0 °F 20.5 °F 23.0 °F 69% 29.91 in 10.0 mi SSW 18.4 mph 24.2 mph N/A   Clear
11:15 AM 33.8 °F 22.8 °F 26.6 °F 75% 29.89 in 10.0 mi SSW 18.4 mph 26.5 mph N/A   Clear
11:35 AM 33.8 °F 23.2 °F 26.6 °F 75% 29.89 in 10.0 mi SSW 17.3 mph 24.2 mph N/A   Clear
11:55 AM 35.6 °F 25.2 °F 28.4 °F 75% 29.87 in 10.0 mi SSW 18.4 mph - N/A   Clear
12:10 PM 35.6 °F 25.2 °F 28.4 °F 75% 29.86 in 10.0 mi SSW 18.4 mph 23.0 mph N/A   Clear
12:35 PM 35.6 °F 24.8 °F 28.4 °F 75% 29.85 in 10.0 mi SSW 19.6 mph 25.3 mph N/A   Clear
12:55 PM 35.6 °F 25.2 °F 28.4 °F 75% 29.84 in 10.0 mi SSW 18.4 mph 26.5 mph N/A   Clear
1:15 PM 37.4 °F 28.5 °F 28.4 °F 70% 29.84 in 10.0 mi SSW 15.0 mph 20.7 mph N/A   Clear
1:35 PM 37.4 °F 28.5 °F 30.2 °F 75% 29.82 in 10.0 mi SSW 15.0 mph 20.7 mph N/A   Clear
1:55 PM 37.4 °F 27.8 °F 30.2 °F 75% 29.80 in 10.0 mi SSW 17.3 mph 23.0 mph N/A   Clear
2:15 PM 37.4 °F 29.3 °F 30.2 °F 75% 29.81 in 10.0 mi SSW 12.7 mph - N/A   Clear
2:35 PM 37.4 °F 28.9 °F 30.2 °F 75% 29.79 in 10.0 mi SSW 13.8 mph - 0.01 in   Clear
2:50 PM 39.2 °F 30.2 °F 30.2 °F 70% 29.77 in 10.0 mi SSW 17.3 mph - 0.01 in   Clear
3:15 PM 39.2 °F 30.5 °F 30.2 °F 70% 29.76 in 10.0 mi SW 16.1 mph 20.7 mph N/A   Clear
3:35 PM 39.2 °F 30.5 °F 32.0 °F 75% 29.76 in 10.0 mi SW 16.1 mph 20.7 mph N/A   Clear
3:55 PM 39.2 °F 30.5 °F 32.0 °F 75% 29.76 in 10.0 mi SW 16.1 mph 21.9 mph N/A   Clear
4:15 PM 39.2 °F 30.5 °F 32.0 °F 75% 29.75 in 10.0 mi SW 16.1 mph - N/A   Clear
4:35 PM 41.0 °F 32.5 °F 32.0 °F 70% 29.74 in 10.0 mi SW 17.3 mph - N/A   Clear
4:55 PM 41.0 °F 33.5 °F 32.0 °F 70% 29.74 in 10.0 mi SW 13.8 mph - N/A   Clear
5:15 PM 41.0 °F 34.3 °F 32.0 °F 70% 29.74 in 10.0 mi SW 11.5 mph - N/A   Clear
5:35 PM 41.0 °F 39.0 °F 32.0 °F 70% 29.74 in 10.0 mi West 3.5 mph - N/A   Clear
5:55 PM 41.0 °F 36.4 °F 32.0 °F 70% 29.74 in 10.0 mi WSW 6.9 mph - N/A   Clear
6:15 PM 39.2 °F 33.0 °F 32.0 °F 75% 29.73 in 10.0 mi SW 9.2 mph - N/A   Clear
6:35 PM 41.0 °F 36.4 °F 32.0 °F 70% 29.73 in 10.0 mi SW 6.9 mph - N/A   Clear
6:55 PM 39.2 °F 35.0 °F 32.0 °F 75% 29.74 in 10.0 mi SW 5.8 mph - N/A   Clear
7:15 PM 39.2 °F 33.6 °F 32.0 °F 75% 29.74 in 10.0 mi SW 8.1 mph - N/A   Clear
7:35 PM 37.4 °F 34.9 °F 32.0 °F 81% 29.74 in 10.0 mi SW 3.5 mph - N/A   Clear
7:55 PM 37.4 °F - 32.0 °F 81% 29.75 in 10.0 mi Calm Calm - N/A   Clear
8:15 PM 37.4 °F 34.9 °F 32.0 °F 81% 29.74 in 10.0 mi SSW 3.5 mph - N/A   Clear
8:35 PM 37.4 °F - 32.0 °F 81% 29.74 in 10.0 mi Calm Calm - N/A   Clear
8:55 PM 37.4 °F 34.9 °F 32.0 °F 81% 29.74 in 10.0 mi SW 3.5 mph - N/A   Clear
9:15 PM 37.4 °F - 32.0 °F 81% 29.74 in 10.0 mi Calm Calm - N/A   Scattered Clouds
9:35 PM 37.4 °F - 32.0 °F 81% 29.74 in 10.0 mi Calm Calm - N/A   Overcast
9:55 PM 37.4 °F 34.9 °F 32.0 °F 81% 29.74 in 10.0 mi SSW 3.5 mph - N/A   Overcast
10:15 PM 35.6 °F - 32.0 °F 87% 29.74 in 10.0 mi Calm Calm - N/A   Overcast
10:35 PM 37.4 °F - 32.0 °F 81% 29.74 in 10.0 mi Calm Calm - N/A   Overcast
10:55 PM 35.6 °F - 32.0 °F 87% 29.73 in 10.0 mi Calm Calm - N/A   Mostly Cloudy
11:15 PM 35.6 °F - 33.8 °F 93% 29.73 in 10.0 mi Calm Calm - N/A   Scattered Clouds
11:35 PM 35.6 °F - 32.0 °F 87% 29.72 in 10.0 mi Calm Calm - N/A   Mostly Cloudy
11:55 PM 35.6 °F 32.8 °F 33.8 °F 93% 29.72 in 10.0 mi WSW 3.5 mph - N/A   Mostly Cloudy
12:15 AM 37.4 °F 34.9 °F 32.0 °F 81% 29.71 in 10.0 mi SSW 3.5 mph - N/A   Mostly Cloudy
12:35 AM 37.4 °F 34.9 °F 33.8 °F 87% 29.70 in 10.0 mi SW 3.5 mph - N/A   Scattered Clouds
12:55 AM 37.4 °F - 32.0 °F 81% 29.70 in 10.0 mi Calm Calm - N/A   Scattered Clouds